Orbital Elements at Epoch 2459200.5 (2020-Dec-17.0) TDB
Reference: JPL 16 (heliocentric ecliptic J2000)
Element | Value | Uncertainty (1-sigma) | Units |
e | .04300257535734368 | 4.4929e-08 | |
a | 3.153622955614917 | 2.3617e-08 | au |
q | 3.018009046817438 | 1.3788e-07 | au |
i | 14.92591328462943 | 4.5063e-06 | deg |
node | 93.0876141952411 | 1.802e-05 | deg |
peri | 331.2257905761703 | 5.6668e-05 | deg |
M | 236.7366001283879 | 5.4755e-05 | deg |
tp | 2459900.897715376712 (2022-Nov-17.39771538) | 0.00031462 | TDB |
period | 2045.564034403093 5.60 | 2.2978e-05 6.291e-08 | d yr |
n | .1759905795885045 | 1.9769e-09 | deg/d |
Q | 3.289236864412397 | 2.4633e-08 | au |
|
| | Orbit Determination Parameters
Additional Information
|